AURA

Last updated on Wed Sep 17 2025 00:02:30 GMT+0000 (Coordinated Universal Time)

1 28376U 04026A 25259.59344077 .00000913 00000+0 19747-3 0 9993 2 28376 98.3022 209.5089 0001753 82.3753 277.7647 14.60621027126265
UTC large
Height (km)
Speed (km/s)
/
Latitude / Longitude
Inclination (degrees)
Orbital Period (minutes)
Azimuth
Elevation
Range (km)
Doppler Factor

Next 0 passes for location: London (51.5072 / 0.1276)

Sorry there are no passes over London.